{"data":{"norad_id":69366,"intl_designator":"2026-123P","name":"STARLINK-37581","alt_names":[],"object_type":"PAYLOAD","status":"ACTIVE","operator":null,"country":"US","launch_date":"2026-06-04","launch_site_code":"AFETR","launch_vehicle":null,"mission":null,"orbit_class":"UNKNOWN","rcs_meters":null,"size_class":null,"mass_kg":null,"dimensions":null,"purposes":["comms"],"wikipedia_slug":null,"has_3d_model":false,"image_url":null,"decayed_at":null,"tle_current":{"epoch":"2026-09-20T00:11:01.119840Z","epoch_age_seconds":71432,"freshness":"FRESH","line1":"1 69366U 26123P   26263.00765185  .00024328  00000+0  72869-3 0  9998","line2":"2 69366  53.1594 144.0679 0001572  68.9547 291.1623 15.34405313 16790","mean_motion":15.34405313,"eccentricity":0.0001572,"inclination_deg":53.1594,"raan_deg":144.0679,"arg_perigee_deg":68.9547,"mean_anomaly_deg":291.1623,"bstar":0.00072869,"rev_number":1679,"period_min":93.847433126035,"perigee_km":461.61207129364,"apogee_km":463.76282650037,"semimajor_km":6840.824448897,"source":"CELESTRAK","updated_at":"2026-09-20T09:00:44.166965Z"}}}